Regional Weather Roundup
Issued by NWS

Home | Current Version | Previous Version | Graphics & Text | Print | Product List | Glossary On
Versions: 1 2 3 4 5 6 7 8 9 10 11 12 13 14 15 16 17 18 19 20 21 22 23 24 25 26 27 28 29 30 31 32 33 34 35 36 37 38 39 40 41 42 43 44 45 46 47 48 49 50
142
ASUS43 KIND 281059
RWRIN

WEATHER ROUNDUP FOR INDIANA
NATIONAL WEATHER SERVICE INDIANAPOLIS IN
700 AM EDT THU APR 28 2016

NOTE: "FAIR" INDICATES FEW OR NO CLOUDS BELOW 12,000 FEET WITH NO
SIGNIFICANT WEATHER AND/OR OBSTRUCTIONS TO VISIBILITY.

* - STATION DOES NOT REPORT WEATHER SUCH AS PRECIPITATION OR FOG.

+ - STATION NOT QUALITY CONTROLLED BY THE NATIONAL WEATHER SERVICE.
    USE DATA WITH CAUTION...ESPECIALLY DEWPOINT AND RELATIVE
    HUMIDITY OBSERVATIONS.

INZ001>003-010>013-019-020-281200-
NORTHWEST INDIANA

CITY           SKY/WX    TMP DP  RH WIND       PRES   REMARKS
GARY /AIRPORT/ CLOUDY    46  46 100 NE9       29.85R FOG
MONTICELLO +   LGT RAIN  45  42  88 E15G21    29.73F
RENSSELAER +   CLOUDY    45  45 100 E18G29    29.74F FOG

$$

LMZ046-743>745-281200-
SOUTHERN LAKE MICHIGAN

STATION/POSITION TIME  TEMP    WIND        PRES    WAVE
                       AIR SEA DIR/SP/G            HT
                 (UTC) (F)     (DEG/KT/KT) (MB)    (FT)
BURNS HARBOR     1006   46      80/  8/ 19 1010.8R
MICHIGAN CITY    1000   47     220/  6/  8   N/A

$$

INZ004-005-014>016-021>024-281200-
NORTH CENTRAL INDIANA

CITY           SKY/WX    TMP DP  RH WIND       PRES   REMARKS
ELKHART        CLOUDY    45  39  81 E14G20    29.87
GOSHEN         CLOUDY    44  37  76 E16G23    29.86S
PERU/GRISSOM   CLOUDY    45  45 100 E12       29.82F
SOUTH BEND     CLOUDY    44  37  76 SE17G24   29.87R

$$

INZ006>009-017-018-025>027-281200-
NORTHEAST INDIANA

CITY           SKY/WX    TMP DP  RH WIND       PRES   REMARKS
ANGOLA *+      CLOUDY    39  36  87 E8        29.89S
FORT WAYNE     CLOUDY    43  40  89 E13       29.88R

$$

INZ028-029-035-036-043>045-051>053-281200-
WEST CENTRAL INDIANA

CITY           SKY/WX    TMP DP  RH WIND       PRES   REMARKS
CRAWFORDSVL +  CLOUDY    48  48 100 E7        29.77R
GREENCASTLE +  CLOUDY    55  55 100 E6        29.77F
LAFAYETTE      CLOUDY    46  45  96 SE7       29.77F
TERRE HAUTE    CLEAR     55  53  93 E5        29.76R

$$

INZ030>032-037>040-046>048-054>057-064-065-281200-
CENTRAL INDIANA

CITY           SKY/WX    TMP DP  RH WIND       PRES   REMARKS
CP ATTERBURY + TSTM      59  57  94 NE12G17   29.76S
COLUMBUS       CLOUDY    59  59 100 S10       29.76  FOG
INDIANAPOLIS   TSTM      52  50  93 NE14      29.79R FOG
-EAGLE CREEK   LGT RAIN  51  49  92 NE9       29.80F
KOKOMO *+      CLOUDY    45  39  81 E14       29.84S
SHELBYVILLE    CLOUDY    57  55  93 N9        29.79R FOG

$$

INZ033-034-041-042-049-050-058-059-281200-
EAST CENTRAL INDIANA

CITY           SKY/WX    TMP DP  RH WIND       PRES   REMARKS
MUNCIE         CLOUDY    47  42  83 CALM      29.86R THUNDER

$$

INZ060-061-067>069-081>083-085>088-281200-
SOUTHWEST INDIANA

CITY           SKY/WX    TMP DP  RH WIND       PRES   REMARKS
EVANSVILLE     FOG       58  58 100 CALM      29.78R VSB 1/2
HUNTINGBURG *+ CLOUDY    63  57  82 S6        29.78R

$$

INZ062-063-066-070>080-084-089>092-281200-
SOUTH CENTRAL AND SOUTHEAST INDIANA

CITY           SKY/WX    TMP DP  RH WIND       PRES   REMARKS
BLOOMINGTON    LGT RAIN  62  59  90 NW5       29.78R
MADISON *+     CLOUDY    61  59  94 SE7       29.81R

$$





USA.gov is the U.S. government's official web portal to all federal, state and local government web resources and services.